User: anonymous   Login
Location: Unspecified
(0.0000°N, 0.0000°E)
Time: 11:21:36
(UTC+00:00)
Language:

USA 285 - Orbit

View from above orbital plane
View from above orbital plane
View from above satellite
View from above satellite

Ground track
Ground track

The orbit data is extracted from the following two-line orbital elements,

1 43445U 18036E   22270.04780851 -.00000227  00000-0  00000+0 0  9995
2 43445   3.7722  82.3777 0008711 110.4722 282.8844  1.02115729 13043
Epoch (UTC): 27 September 2022 01:08:50
Eccentricity: 0.0008711
inclination: 3.7722°
perigee height: 35241 km
apogee height: 35313 km
right ascension of ascending node: 82.3777°
argument of perigee: 110.4722°
revolutions per day: 1.02115729
mean anomaly at epoch: 282.8844°
orbit number at epoch: 1304

The dashed part of the orbit path shows where the satellite is in the earth's shadow,  

DLR